Flag for Austria Weather past 2 weeks in Waidhofen an der Ybbs, Lower Austria, Austria

Now
24 °F

Cold.


Feels Like: 24 °F
Forecast: 24 / 32 °F
Wind: 1 mph from West

Location: Amstetten

Current Time: Feb 1, 2015 at 5:14:09 AM

Latest Report: Feb 1, 2015 at 4:00 AM


Visibility: N/A

Pressure: 29.29 "Hg

Humidity: 96%

Dew point: 23 °F

Location of Waidhofen an der YbbsLocation

Historic Weather in Waidhofen an der Ybbs — Graph

°F

Waidhofen an der Ybbs temperature yesterday

Maximum temperature yesterday: 41 °F (at 3:00 PM)
Minimum temperature yesterday: 27 °F (at 11:00 PM)
Average temperature yesterday: 33 °F

Past Weeks' High & Low Weather Summary

 TemperatureHumidityPressure
High45 °F (Jan 22, 3:00 PM)100% (Jan 27, 7:00 AM)30.37 "Hg (Jan 27, 7:00 AM)
Low24 °F (Feb 1, 2:00 AM)57% (Jan 31, 3:00 PM)28.79 "Hg (Jan 30, 5:00 AM)
Average35 °F89%29.87 "Hg
* Reported Jan 17 3:00 AM — Feb 1 3:00 AM, Waidhofen an der Ybbs, Weather by CustomWeather, © 2014

Note: Actual official high and low records may vary slightly from our data, if they occured in-between our weather recording intervals... More about our weather records

Advertising

Waidhofen an der Ybbs weather history for previous 24 hours

 ConditionsComfort  
Time TempWeatherWind HumidityBarometerVisibility
3:00 AM
Feb 1
25 °FChilly.2 mph96%29.26 "HgN/A
2:00 AM24 °FCold.1 mph96%29.26 "HgN/A
1:00 AM25 °FChilly.1 mph96%29.26 "HgN/A
12:00 AM25 °FChilly.1 mph95%29.26 "HgN/A
11:00 PM
Jan 31
27 °FChilly.No wind96%29.23 "HgN/A
10:00 PM27 °FChilly.1 mph95%29.23 "HgN/A
9:00 PM28 °FChilly.1 mph95%29.23 "HgN/A
8:00 PM29 °FChilly.1 mph92%29.21 "HgN/A
7:00 PM31 °FChilly.1 mph88%29.21 "HgN/A
6:00 PM32 °FChilly.No wind83%29.18 "HgN/A
5:00 PM34 °FChilly.1 mph78%29.18 "HgN/A
4:00 PM41 °FQuite cool.2 mph59%29.15 "HgN/A
3:00 PM41 °FQuite cool.5 mph57%29.12 "HgN/A
2:00 PM38 °FChilly.3 mph70%29.12 "HgN/A
1:00 PM38 °FChilly.2 mph74%29.12 "HgN/A
12:00 PM36 °FChilly.2 mph83%29.12 "HgN/A
11:00 AM35 °FChilly.5 mph79%29.12 "HgN/A
10:00 AM35 °FChilly.2 mph76%29.12 "HgN/A
9:00 AM33 °FChilly.3 mph77%29.09 "HgN/A
8:00 AM32 °FChilly.2 mph82%29.09 "HgN/A
7:00 AM33 °FChilly.3 mph80%29.06 "HgN/A
6:00 AM33 °FChilly.5 mph89%29.03 "HgN/A
5:00 AM31 °FChilly.3 mph88%29.00 "HgN/A
Weather by CustomWeather, © 2014

See weather overviewHow to use our weather pages